User: anonymous
Location: Unspecified
(0.0000°N, 0.0000°E)
Time: 20:01:18
(UTC+00:00)
Language:

A-11 Canister half - Orbit

View from above orbital plane
View from above orbital plane
View from above satellite
View from above satellite

Ground track
Ground track

The orbit data is extracted from the following two-line orbital elements,

1 00053U 60009E   14203.02167622 -.00000084  00000-0  00000+0 0  5425
2 00053 047.2768 071.6308 0097584 186.0702 319.6879 12.17141572405795
Epoch (UTC): 22 July 2014 00:31:12
Eccentricity: 0.0097584
inclination: 47.2768°
perigee height: 1527 km
apogee height: 1683 km
right ascension of ascending node: 71.6308°
argument of perigee: 186.0702°
revolutions per day: 12.17141572
mean anomaly at epoch: 319.6879°
orbit number at epoch: 40579

The dashed part of the orbit path shows where the satellite is in the earth's shadow,  

DLR